This is the latest recevied weather packets stored in our database for station/object OH2EGI-2. If no packets are shown the sender has not sent any weather packets the latest 10 day(s).
| Time | Temp. | Humidity | Pressure | Rain* | Wind** | Luminosity | Snow |
|---|---|---|---|---|---|---|---|
| 1777969896 | 17.22° C | 49% | 993.1 hPa | 0 mm | - | - | - |
| 1777969596 | 17.22° C | 49% | 993 hPa | 0 mm | - | - | - |
| 1777969297 | 16.67° C | 51% | 993 hPa | 0 mm | - | - | - |
| 1777968996 | 16.67° C | 49% | 993 hPa | 0 mm | - | - | - |
| 1777968696 | 17.22° C | 49% | 993 hPa | 0 mm | - | - | - |
| 1777968396 | 17.78° C | 49% | 993.1 hPa | 0 mm | - | - | - |
| 1777968097 | 17.78° C | 50% | 993.1 hPa | 0 mm | - | - | - |
| 1777967796 | 17.22° C | 50% | 993 hPa | 0 mm | - | - | - |
| 1777967496 | 17.22° C | 50% | 992.7 hPa | 0 mm | - | - | - |
| 1777967196 | 17.78° C | 49% | 992.9 hPa | 0 mm | - | - | - |
| 1777966896 | 17.78° C | 50% | 992.9 hPa | 0 mm | - | - | - |
| 1777966596 | 17.22° C | 50% | 992.9 hPa | 0 mm | - | - | - |
| 1777966296 | 17.22° C | 50% | 992.8 hPa | 0 mm | - | - | - |
| 1777965996 | 17.22° C | 49% | 992.8 hPa | 0 mm | - | - | - |
| 1777965696 | 16.67° C | 51% | 992.8 hPa | 0 mm | - | - | - |
| 1777965396 | 16.67° C | 50% | 992.8 hPa | 0 mm | - | - | - |
| 1777965096 | 16.67° C | 50% | 992.9 hPa | 0 mm | - | - | - |
| 1777964796 | 16.67° C | 50% | 992.8 hPa | 0 mm | - | - | - |
| 1777964496 | 16.67° C | 49% | 992.8 hPa | 0 mm | - | - | - |
| 1777964196 | 17.22° C | 49% | 992.8 hPa | 0 mm | - | - | - |
| 1777963896 | 17.78° C | 49% | 992.8 hPa | 0 mm | - | - | - |
| 1777963597 | 17.78° C | 50% | 992.8 hPa | 0 mm | - | - | - |
| 1777963297 | 17.78° C | 53% | 992.6 hPa | 0 mm | - | - | - |
| 1777962997 | 17.78° C | 52% | 992.5 hPa | 0 mm | - | - | - |
| 1777962697 | 17.78° C | 54% | 992.5 hPa | 0 mm | - | - | - |
* Rain latest hour (hover to see other rain measurements)
** Current wind speed in m/s (hover to see current wind gust speed)